Starlink 30166

operational
NORAD ID: 57602 Int'l Des: 2023-119 Owner: SPXS Country: US Constellation: starlink
LEOCIRCULAR

Über Starlink 30166

Beschreibung wird geladen...

Live-Position

3D-Globus wird geladen...

Nächste Überflüge

Höhenverlauf

Altitude vs Time

uPlot chart will show altitude changes over time

Zweizeiliger Elementsatz

1 57602U 23119A 25258.20139242 .00001600 00000-0 13348-3 0 9990
2 57602 43.0023 315.5340 0001585 271.9939 88.0722 15.02543844116623
Epoch: 15. Sept. 2025 • Age: 13 hours

Aktueller Status

Höhe 563.2 km
Geschwindigkeit 7.59 km/s
Subsatellitenpunkt 42.74°N, 146.92°E
Startdatum 11. Aug. 2023
Alter 2 years
Typ internet

Technische Details

Klassifizierung Payload
Masse 730.00 kg
Trockenmasse 700.00 kg
Gesamtmasse 730.00 kg
Länge 0.30 m
Durchmesser 4.10 m
Spannweite 29.00 m
Form Box + pan
Hersteller SPXS
Bus-Typ Starlink V2M
Phasenstatus In Orbit
Besitzer/Staat SPXS/US

Große Konstellationen

Loading constellations...